St. George, AK

8:44 AM AKDT on April 29, 2017 (GMT -0800)
Saint George

Weather History for PAPB - August, 2013

Change the Weather History Date:

Wednesday, August 7, 2013

  Actual Average Record
Temperature  
Mean Temperature 48 °F -  
Max Temperature 51 °F 50 °F 60 °F (1997)
Min Temperature 46 °F 44 °F 41 °F (2012)
Degree Days  
Heating Degree Days 16    
Moisture  
Dew Point 47 °F    
Average Humidity 96    
Maximum Humidity 100    
Minimum Humidity 87    
Precipitation  
Precipitation 0.02 in - - ()
Sea Level Pressure  
Sea Level Pressure 29.52 in    
Wind  
Wind Speed 5 mph (West)    
Max Wind Speed 9 mph    
Max Gust Speed -    
Visibility 5 miles    
Events Fog , Rain    
Averages and records for this station are not official NWS values.
T = Trace of Precipitation, MM = Missing Value Source: NWS Daily Summary

Daily Weather History Graph

Daily Weather History Graph

Search for Another Location

Airport or City:

Trip Planner

Search our weather history database for the weather conditions in past years. The results will help you decide how hot, cold, wet, or windy it might be!

Date:

Astronomy

Aug. 07, 2013 Rise Set
Actual Time 7:32 AM AKDT 11:14 PM AKDT
Civil Twilight 6:45 AM AKDT 12:01 AM AKDT
Nautical Twilight 5:37 AM AKDT 1:08 AM AKDT
Astronomical Twilight 3:56 AM AKDT 2:51 AM AKDT
Moon 8:59 AM AKDT (8/7) 10:57 PM AKDT (8/7)
Length of Visible Light 17h 16m
Length of Day
15h 42m
New Moon, 1% of the Moon is Illuminated
Aug 7
New Moon
Aug 14
First Quarter
Aug 20
Full
Aug 28
Last Quarter
Sep 5
New

Hourly Weather History & Observations

Time (AKDT) Temp. Windchill Dew Point Humidity Pressure Visibility Wind Dir Wind Speed Gust Speed Precip Events Conditions
12:01 AM 48.2 °F - 46.4 °F 93% 29.65 in 7.0 mi West 8.1 mph - N/A   Overcast
12:06 AM 48.2 °F - 46.4 °F 93% 29.65 in 2.5 mi West 6.9 mph - N/A   Overcast
12:11 AM 46.4 °F 42.9 °F 46.4 °F 100% 29.65 in 1.0 mi West 6.9 mph - N/A   Overcast
12:19 AM 46.4 °F 43.5 °F 46.4 °F 100% 29.65 in 0.8 mi WNW 5.8 mph - N/A   Overcast
12:30 AM 46.4 °F 44.3 °F 46.4 °F 100% 29.64 in 1.2 mi WNW 4.6 mph - N/A   Overcast
12:33 AM 46.4 °F 44.3 °F 46.4 °F 100% 29.64 in 3.0 mi WNW 4.6 mph - N/A   Overcast
12:53 AM 48.0 °F - 46.9 °F 96% 29.61 in 6.0 mi West 4.6 mph - N/A   Overcast
1:11 AM 48.2 °F - 46.4 °F 93% 29.64 in 1.5 mi West 5.8 mph - N/A   Overcast
1:14 AM 46.4 °F 44.3 °F 46.4 °F 100% 29.64 in 0.8 mi West 4.6 mph - N/A   Overcast
1:21 AM 46.4 °F 44.3 °F 46.4 °F 100% 29.63 in 0.5 mi WNW 4.6 mph - N/A Fog Fog
1:53 AM 46.9 °F - 46.9 °F 100% 29.59 in 0.8 mi West 6.9 mph - N/A   Mist
2:36 AM 48.2 °F - 46.4 °F 93% 29.62 in 1.2 mi WNW 8.1 mph - 0.01 in   Overcast
2:41 AM 48.2 °F - 46.4 °F 93% 29.62 in 3.0 mi West 8.1 mph - 0.01 in   Overcast
2:47 AM 46.4 °F 42.9 °F 46.4 °F 100% 29.62 in 1.8 mi West 6.9 mph - 0.01 in   Overcast
2:53 AM 46.9 °F - 46.9 °F 100% 29.58 in 1.0 mi West 8.1 mph - 0.01 in   Mist
3:09 AM 48.2 °F - 46.4 °F 93% 29.61 in 0.8 mi West 8.1 mph - N/A   Mist
3:44 AM 48.2 °F - 46.4 °F 93% 29.60 in 1.2 mi West 9.2 mph - N/A   Overcast
3:49 AM 48.2 °F - 46.4 °F 93% 29.60 in 3.0 mi WNW 8.1 mph - N/A   Overcast
3:53 AM 48.0 °F - 46.9 °F 96% 29.57 in 6.0 mi WNW 8.1 mph - N/A   Overcast
4:18 AM 48.2 °F - 46.4 °F 93% 29.60 in 10.0 mi WNW 5.8 mph - N/A   Overcast
4:39 AM 46.4 °F 44.3 °F 46.4 °F 100% 29.60 in 10.0 mi WNW 4.6 mph - N/A   Overcast
4:53 AM 46.9 °F - 46.9 °F 100% 29.56 in 10.0 mi West 6.9 mph - N/A   Overcast
5:38 AM 46.4 °F 45.2 °F 46.4 °F 100% 29.58 in 9.0 mi West 3.5 mph - N/A   Overcast
5:53 AM 46.9 °F - 45.0 °F 93% 29.54 in 10.0 mi Calm Calm - N/A   Overcast
6:04 AM 46.4 °F - 46.4 °F 100% 29.57 in 10.0 mi Calm Calm - N/A   Overcast
6:11 AM 46.4 °F - 44.6 °F 93% 29.57 in 10.0 mi Calm Calm - N/A   Overcast
6:23 AM 46.4 °F - 46.4 °F 100% 29.57 in 10.0 mi Calm Calm - N/A   Overcast
6:53 AM 46.9 °F - 46.0 °F 97% 29.53 in 10.0 mi Calm Calm - N/A   Overcast
7:06 AM 46.4 °F - 46.4 °F 100% 29.57 in 10.0 mi Calm Calm - N/A   Overcast
7:53 AM 46.9 °F - 46.0 °F 97% 29.52 in 10.0 mi Calm Calm - N/A   Overcast
8:28 AM 48.2 °F - 46.4 °F 93% 29.55 in 1.8 mi Calm Calm - N/A   Overcast
8:34 AM 46.4 °F - 46.4 °F 100% 29.55 in 0.8 mi Calm Calm - N/A   Overcast
8:42 AM 46.4 °F - 46.4 °F 100% 29.55 in 0.5 mi Calm Calm - N/A Fog Fog
8:53 AM 46.9 °F - 46.0 °F 97% 29.51 in 0.2 mi Calm Calm - N/A Fog Fog
9:53 AM 46.9 °F - 46.9 °F 100% 29.49 in 0.2 mi Calm Calm - N/A Fog Fog
10:45 AM 46.4 °F - 46.4 °F 100% 29.53 in 0.2 mi Calm Calm - N/A Fog Fog
10:53 AM 48.0 °F - 46.9 °F 96% 29.49 in 0.2 mi Calm Calm - N/A Fog Fog
11:08 AM 48.2 °F - 48.2 °F 100% 29.52 in 1.5 mi Calm Calm - N/A   Overcast
11:10 AM 48.2 °F - 48.2 °F 100% 29.52 in 3.0 mi West 3.5 mph - N/A   Overcast
11:28 AM 48.2 °F - 48.2 °F 100% 29.52 in 1.8 mi West 4.6 mph - N/A   Overcast
11:38 AM 48.2 °F - 48.2 °F 100% 29.51 in 1.0 mi West 5.8 mph - N/A   Overcast
11:46 AM 48.2 °F - 48.2 °F 100% 29.51 in 0.5 mi West 3.5 mph - N/A Fog Fog
11:53 AM 48.9 °F - 48.0 °F 97% 29.47 in 1.2 mi West 3.5 mph - N/A   Overcast
12:03 PM 48.2 °F - 48.2 °F 100% 29.51 in 2.5 mi West 3.5 mph - N/A   Overcast
12:09 PM 48.2 °F - 48.2 °F 100% 29.51 in 5.0 mi WSW 4.6 mph - N/A   Overcast
12:16 PM 48.2 °F - 46.4 °F 93% 29.51 in 1.8 mi WSW 5.8 mph - N/A   Overcast
12:21 PM 48.2 °F - 46.4 °F 93% 29.51 in 1.0 mi WSW 4.6 mph - N/A   Overcast
12:28 PM 48.2 °F - 46.4 °F 93% 29.51 in 1.2 mi West 3.5 mph - N/A   Overcast
12:35 PM 48.2 °F - 48.2 °F 100% 29.51 in 2.5 mi West 5.8 mph - N/A   Overcast
12:42 PM 48.2 °F - 46.4 °F 93% 29.51 in 4.0 mi West 4.6 mph - N/A   Overcast
12:45 PM 48.2 °F - 46.4 °F 93% 29.51 in 1.8 mi West 5.8 mph - N/A   Overcast
12:49 PM 48.2 °F - 46.4 °F 93% 29.51 in 1.0 mi West 6.9 mph - N/A   Overcast
12:53 PM 48.9 °F - 46.9 °F 93% 29.47 in 1.2 mi West 5.8 mph - N/A   Overcast
12:57 PM 48.2 °F - 46.4 °F 93% 29.51 in 3.0 mi West 5.8 mph - N/A   Overcast
1:40 PM 48.2 °F - 46.4 °F 93% 29.50 in 10.0 mi West 5.8 mph - N/A   Overcast
1:53 PM 48.9 °F - 46.9 °F 93% 29.46 in 10.0 mi West 6.9 mph - N/A   Overcast
2:11 PM 50.0 °F - 46.4 °F 87% 29.49 in 7.0 mi West 5.8 mph - N/A   Overcast
2:27 PM 48.2 °F - 46.4 °F 93% 29.49 in 1.8 mi West 6.9 mph - N/A   Overcast
2:29 PM 48.2 °F - 46.4 °F 93% 29.49 in 0.8 mi West 6.9 mph - N/A   Overcast
2:53 PM 48.9 °F - 48.0 °F 97% 29.45 in 1.0 mi West 4.6 mph - N/A   Mist
2:58 PM 48.2 °F - 48.2 °F 100% 29.48 in 2.0 mi West 4.6 mph - N/A   Overcast
3:05 PM 50.0 °F - 48.2 °F 94% 29.48 in 8.0 mi WSW 4.6 mph - N/A   Overcast
3:18 PM 50.0 °F - 48.2 °F 94% 29.48 in 10.0 mi WSW 4.6 mph - N/A   Overcast
3:53 PM 48.9 °F - 46.9 °F 93% 29.44 in 10.0 mi West 6.9 mph - N/A   Overcast
4:53 PM 50.0 °F - 46.9 °F 89% 29.43 in 10.0 mi West 4.6 mph - N/A   Overcast
5:15 PM 50.0 °F - 48.2 °F 94% 29.46 in 10.0 mi WSW 4.6 mph - N/A   Overcast
5:33 PM 48.2 °F - 46.4 °F 93% 29.46 in 6.0 mi West 4.6 mph - N/A   Overcast
5:43 PM 50.0 °F - 48.2 °F 94% 29.46 in 10.0 mi West 5.8 mph - N/A   Overcast
5:53 PM 50.0 °F - 48.9 °F 96% 29.42 in 10.0 mi West 5.8 mph - 0.00 in Rain Light Rain
6:06 PM 50.0 °F - 48.2 °F 94% 29.46 in 10.0 mi WSW 6.9 mph - 0.00 in   Overcast
6:33 PM 50.0 °F - 48.2 °F 94% 29.45 in 10.0 mi West 8.1 mph - 0.00 in   Overcast
6:53 PM 50.0 °F - 46.9 °F 89% 29.42 in 10.0 mi West 5.8 mph - 0.00 in   Overcast
7:53 PM 51.1 °F - 48.0 °F 89% 29.40 in 10.0 mi West 9.2 mph - N/A   Overcast
8:06 PM 51.8 °F - 48.2 °F 88% 29.43 in 10.0 mi West 8.1 mph - N/A   Overcast
8:09 PM 51.8 °F - 48.2 °F 88% 29.44 in 10.0 mi West 8.1 mph - N/A   Overcast
8:16 PM 51.8 °F - 48.2 °F 88% 29.43 in 10.0 mi West 9.2 mph - N/A   Overcast
8:53 PM 50.0 °F - 48.0 °F 93% 29.39 in 10.0 mi West 8.1 mph - N/A   Overcast
9:36 PM 48.2 °F - 46.4 °F 93% 29.43 in 2.5 mi West 8.1 mph - N/A   Overcast
9:42 PM 48.2 °F - 48.2 °F 100% 29.43 in 1.0 mi West 6.9 mph - N/A   Overcast
9:53 PM 48.9 °F - 46.9 °F 93% 29.39 in 1.2 mi West 6.9 mph - N/A   Overcast
10:03 PM 48.2 °F - 46.4 °F 93% 29.43 in 3.0 mi West 6.9 mph - N/A   Overcast
10:19 PM 48.2 °F - 48.2 °F 100% 29.43 in 5.0 mi West 6.9 mph - 0.00 in Rain Light Rain
10:46 PM 48.2 °F - 48.2 °F 100% 29.43 in 9.0 mi West 6.9 mph - 0.01 in Rain Light Rain
10:53 PM 48.9 °F - 48.0 °F 97% 29.40 in 9.0 mi West 6.9 mph - 0.01 in Rain Light Rain
11:04 PM 48.2 °F - 48.2 °F 100% 29.43 in 9.0 mi West 9.2 mph - 0.00 in Rain Light Rain
11:24 PM 48.2 °F - 46.4 °F 93% 29.43 in 9.0 mi West 9.2 mph - 0.00 in   Overcast
11:53 PM 48.9 °F - 48.0 °F 97% 29.40 in 9.0 mi West 8.1 mph - 0.00 in   Overcast